Location: Spring Creek
(38.2870°N, 100.2160°W)
Time: 03:54:49
(UTC+00:00)

BREEZE-M DEB (TANK) - Pass Details

Date: 08 May 2021
Orbit: 352 x 17103 km, 49.4° (Epoch: 21 June)

Event Time Altitude Azimuth Distance (km) Brightness Sun altitude
Rises 10:02:37 0° 300° (WNW) 10,955 9.2 -16.6°
Reaches altitude 10° 10:13:52 10° 303° (WNW) 7,185 8.2 -14.8°
Maximum altitude 10:29:29 79° 31° (NNE) 1,124 4.4 -12.3°
Drops below altitude 10° 10:33:27 10° 118° (ESE) 1,992 6.1 -11.7°
Sets 10:34:49 0° 120° (ESE) 2,611 6.7 -11.5°
